Theta_e
285 285 285 284 285 286 285 285 284 285 287 287 287 287 292 292 292 291 290 288 288 287 285 284 284 283 283 284 284 285 286 287 289 292 297 317 325 328 330 328 328 332 332 331
285 284 284 287 287 285 285 285 284 285 287 287 287 288 292 292 292 292 291 289 288 287 286 284 282 282 282 282 282 283 284 285 286 289 292 296 307 325 328 329 328 331 331 330
284 284 286 286 285 286 285 285 285 285 287 287 287 289 293 292 291 291 290 290 288 287 285 284 282 281 280 280 280 281 282 283 285 286 289 293 300 319 327 328 329 330 331 328
284 285 286 285 285 285 286 286 286 286 287 289 287 291 290 292 291 291 290 289 288 287 285 284 282 280 280 279 279 279 280 282 283 284 286 289 293 298 317 326 328 328 329 327
284 285 285 284 285 286 286 286 287 287 287 287 290 290 292 292 291 290 290 289 288 286 285 284 282 281 279 279 278 278 279 280 281 283 285 288 291 296 305 323 327 327 325 326
284 285 285 284 285 285 286 286 287 288 288 286 290 288 288 292 291 290 289 288 287 286 285 284 283 282 280 279 278 277 278 278 280 282 284 287 290 293 299 318 324 325 323 323
284 285 284 285 285 285 286 284 285 286 285 287 286 287 288 292 291 290 289 288 287 286 285 284 283 282 282 280 279 277 277 277 279 281 283 285 288 290 296 309 323 322 320 320
283 285 284 284 285 283 287 283 283 283 287 285 286 290 292 290 289 288 287 286 286 286 285 284 283 283 282 281 280 278 277 277 278 280 282 284 286 289 292 299 318 320 319 319
278 282 283 285 285 283 282 282 283 278 283 285 286 287 288 290 287 287 286 286 285 285 285 284 283 282 282 281 280 279 277 277 278 279 280 283 284 286 289 293 303 314 318 320
282 280 284 285 284 285 281 282 281 280 276 279 284 286 287 289 288 287 286 285 285 284 284 283 283 282 281 280 280 279 278 277 277 278 279 281 282 283 286 289 292 297 305 310
275 278 284 283 282 282 282 282 282 282 282 283 284 284 279 286 287 286 285 285 284 283 283 283 282 281 281 280 279 279 278 277 277 277 277 279 280 281 283 286 288 292 298 302
280 278 279 282 282 281 279 279 281 278 279 283 283 282 284 285 286 286 286 285 284 283 282 281 281 281 280 279 279 278 277 277 277 277 277 278 279 280 281 283 285 288 292 297
279 277 277 282 278 280 278 283 284 281 281 281 279 283 283 286 282 284 285 284 284 284 282 282 281 280 280 279 278 277 276 276 276 277 277 277 278 279 280 281 282 285 288 291
285 274 277 283 283 276 277 279 284 278 276 281 283 284 285 284 283 283 284 284 282 282 282 281 280 280 280 278 277 276 276 274 274 275 276 276 277 278 278 279 280 282 284 287
282 278 274 280 282 282 282 281 281 282 282 280 285 283 284 283 281 282 284 284 285 284 283 282 282 280 280 278 276 275 275 274 274 274 274 275 276 277 277 278 279 280 282 283
276 275 272 275 282 282 282 282 281 282 283 282 283 283 284 283 283 281 284 285 285 284 284 283 282 281 279 278 276 275 275 273 273 273 273 273 274 275 276 276 278 280 280 281
277 275 273 276 278 279 278 279 281 281 276 282 282 283 283 283 283 283 284 284 284 285 284 283 282 280 279 277 275 274 274 273 272 272 272 272 272 273 274 275 275 277 279 280
277 277 276 276 272 277 283 278 278 282 282 281 280 282 281 282 283 281 281 282 283 284 284 282 281 280 278 276 275 273 274 272 272 271 271 271 271 272 273 273 273 274 276 278
284 281 274 273 265 278 283 279 277 278 278 280 281 282 282 280 277 280 282 281 281 282 282 281 281 280 278 276 275 273 273 272 271 270 269 269 269 270 271 271 272 272 273 275
283 285 279 263 270 274 280 277 277 277 280 278 280 281 281 279 279 282 277 279 280 281 282 281 281 279 276 275 274 273 272 271 270 269 268 268 268 268 270 270 270 271 271 273
278 283 282 279 273 275 278 278 277 278 284 277 278 280 279 281 282 280 277 278 280 281 281 281 280 279 276 274 273 272 271 270 269 268 267 267 267 267 268 268 269 269 270 271
278 277 274 275 276 277 278 280 282 282 277 279 279 279 280 280 281 280 279 280 280 280 280 281 280 277 275 274 272 271 269 269 269 268 267 266 266 265 266 266 267 267 268 270
279 280 278 277 279 278 279 280 281 278 279 280 279 280 281 280 280 280 280 280 279 279 280 280 280 277 274 272 271 270 269 268 267 265 265 265 265 265 264 264 265 265 266 268
277 275 278 277 279 279 280 278 279 280 281 281 281 280 279 279 279 280 280 280 279 279 278 278 277 274 272 271 270 268 267 266 265 264 263 263 263 263 263 263 264 264 265 266
280 278 280 282 283 283 283 281 283 283 283 282 280 279 279 279 280 280 279 279 279 278 276 275 274 272 270 269 268 266 265 264 263 262 262 262 261 261 262 262 262 264 264 265
281 284 284 284 285 284 285 283 281 280 281 281 281 280 279 279 279 278 278 276 275 273 272 271 270 269 267 267 266 264 263 262 261 260 261 261 260 260 260 260 261 262 263 265
Wind_Speed
8 12 10 5 6 4 3 4 10 9 4 14 7 12 8 12 15 16 16 16 21 20 22 28 33 35 37 36 37 38 39 40 36 33 27 20 28 30 33 36 39 38 42 43
6 10 4 2 3 3 2 5 5 12 9 10 5 10 2 9 12 11 14 17 18 22 25 27 32 36 35 34 36 37 37 38 34 28 29 22 26 29 33 33 36 38 40 43
7 4 4 4 2 11 3 1 5 9 14 4 5 2 5 7 11 15 16 15 16 18 20 23 29 32 35 35 37 36 35 35 34 31 31 31 29 26 28 30 32 35 44 45
6 2 3 3 3 8 3 3 12 15 7 3 4 4 4 6 10 17 18 17 16 17 18 19 27 31 34 35 35 36 35 34 31 33 29 25 23 25 27 29 31 33 41 44
2 2 3 3 5 8 7 14 12 9 3 1 3 1 3 4 12 18 18 16 15 15 16 18 25 28 30 33 35 35 34 34 32 32 27 26 25 25 30 29 28 33 34 43
3 1 1 2 8 3 14 5 1 2 2 3 4 4 3 4 7 15 15 15 15 16 16 19 26 27 29 32 34 36 36 35 35 33 29 28 27 28 26 29 27 29 30 36
3 1 3 3 4 4 12 4 4 5 5 3 1 3 7 2 4 8 11 14 13 14 15 16 19 28 33 35 36 36 37 37 36 34 32 31 31 30 24 27 25 25 26 28
3 3 3 5 3 3 6 4 4 3 4 6 8 5 5 5 3 4 4 6 12 12 13 15 20 24 29 32 34 35 36 37 37 36 34 31 32 29 27 26 21 27 28 31
3 3 2 1 1 3 3 4 3 4 2 2 5 6 4 2 4 7 10 9 11 12 12 14 20 23 26 29 32 32 34 35 35 36 34 32 33 35 32 29 18 11 30 34
2 3 2 0 1 2 5 3 2 3 3 6 6 6 7 3 6 8 10 7 10 11 11 12 18 21 23 26 29 31 32 31 32 33 34 32 32 34 33 30 28 18 6 16
3 3 2 4 4 6 1 2 3 3 4 3 5 8 7 6 3 5 7 5 6 9 8 9 16 20 22 23 27 29 31 33 35 35 35 34 34 35 33 31 31 28 14 5
4 4 4 7 1 4 3 6 5 4 4 4 2 9 6 6 5 6 6 7 6 5 6 5 13 16 20 22 23 26 30 31 31 32 33 34 34 35 36 36 34 33 26 15
4 1 4 3 4 4 3 5 4 2 3 7 5 7 4 6 5 6 6 7 7 8 7 5 8 10 15 18 21 22 27 31 33 32 33 34 36 38 38 38 37 34 30 26
6 3 7 6 4 4 2 4 11 6 3 4 15 17 22 16 16 8 7 8 7 7 6 6 6 8 14 15 19 21 24 25 30 31 32 33 35 36 37 37 38 37 35 32
4 5 4 12 14 13 17 13 13 17 21 9 22 10 22 11 9 14 9 7 8 8 6 5 6 7 11 13 17 18 20 21 23 24 28 30 31 33 36 39 40 38 37 35
1 3 2 6 8 13 17 18 20 25 27 26 31 30 30 25 18 10 13 9 9 8 8 7 7 8 10 9 13 14 19 22 20 20 21 25 27 29 34 35 37 39 38 37
6 3 3 6 6 9 9 11 11 8 5 16 16 20 13 13 11 9 10 9 8 10 10 8 7 9 9 11 10 13 14 17 17 18 19 22 23 23 26 29 32 35 36 36
6 5 2 5 5 2 6 4 7 15 8 17 9 12 7 13 11 5 7 7 9 11 11 7 11 12 12 11 10 10 11 14 14 15 19 21 22 22 22 24 26 30 31 31
13 4 1 2 3 10 8 0 5 7 8 15 21 18 15 7 3 8 11 8 11 11 15 17 17 14 11 11 9 9 9 11 13 13 17 21 22 23 21 22 24 26 27 26
6 10 6 3 3 6 5 3 2 3 7 7 10 11 8 4 1 7 5 5 7 16 19 17 14 13 12 11 8 7 9 10 12 14 16 17 20 20 19 21 22 23 23 21
4 7 16 11 5 10 15 6 2 5 7 3 6 8 6 5 8 6 1 4 10 18 21 19 14 16 14 11 7 6 6 9 11 15 19 19 18 18 15 19 20 24 23 21
9 10 5 4 3 12 10 6 7 7 3 1 2 5 5 7 10 7 8 7 10 13 18 21 17 16 13 10 7 6 7 8 11 15 21 22 22 17 14 18 18 22 21 19
3 8 6 13 10 5 10 5 10 2 3 5 4 6 8 9 8 11 10 11 12 16 15 18 17 14 13 9 7 6 7 8 12 17 20 20 21 19 17 16 16 17 19 15
5 5 4 2 10 22 16 13 14 15 15 15 14 13 8 10 10 12 10 9 9 14 15 14 12 11 9 6 6 8 8 11 17 20 19 19 19 19 20 15 12 13 12 13
5 6 8 14 16 24 18 17 22 19 15 13 12 11 11 9 12 10 9 7 9 11 4 6 6 4 3 5 8 8 11 16 18 18 19 17 14 17 16 14 14 13 12 13
7 19 12 15 18 17 19 11 7 8 10 13 11 8 7 8 10 6 6 6 4 3 3 3 1 2 5 7 11 13 14 15 16 15 12 13 12 12 14 14 15 14 13 14
Wind_Direction
19 60 41 355 82 156 219 262 291 286 325 356 7 310 41 20 32 11 9 5 358 357 350 352 351 349 350 350 349 347 344 342 342 336 327 300 253 244 235 232 234 222 221 214
61 60 317 318 49 343 264 301 308 303 335 330 342 304 291 37 31 21 5 2 2 350 349 356 353 350 350 344 344 343 341 338 338 334 323 305 289 260 242 232 229 222 220 214
85 162 300 36 27 0 303 231 310 291 326 333 327 298 332 6 23 8 13 6 360 359 348 345 351 350 346 345 342 338 336 335 335 334 331 322 293 279 248 236 225 222 220 215
78 344 343 1 37 359 306 167 311 301 328 322 63 289 295 325 350 4 356 356 353 351 348 345 346 348 348 343 339 337 335 337 337 338 334 325 307 289 276 237 227 219 218 216
236 17 341 39 349 332 258 317 288 288 212 328 12 2 268 325 348 348 343 344 346 351 347 345 344 342 345 346 344 339 336 338 340 340 336 328 316 303 285 259 224 217 212 215
83 316 302 277 314 281 306 327 357 116 111 36 164 51 284 13 319 329 334 344 344 347 346 346 345 348 348 350 351 347 342 339 340 342 339 335 326 318 300 274 229 209 207 208
336 140 326 12 335 329 346 12 358 357 9 247 25 351 250 233 289 305 327 335 339 344 343 344 346 347 350 349 351 351 347 341 341 341 342 342 335 328 316 306 236 200 200 205
51 339 17 348 119 222 3 56 117 259 313 301 321 225 257 188 225 289 292 320 338 339 342 342 344 343 345 347 350 352 349 343 344 343 344 347 345 340 335 331 262 203 201 210
64 274 327 220 62 112 310 52 189 90 9 315 275 290 297 191 333 350 357 350 341 334 338 337 341 346 345 345 348 351 350 346 347 347 346 351 353 350 347 352 356 241 210 218
174 351 196 63 98 58 113 188 115 39 28 299 279 279 246 290 337 332 336 323 330 328 336 338 341 343 344 348 346 351 353 351 348 352 352 352 359 357 353 358 6 2 358 213
125 105 285 27 202 176 94 110 61 119 148 205 303 264 221 197 220 281 290 303 304 320 323 329 334 341 344 350 353 351 356 353 354 356 357 353 1 4 0 1 6 10 15 359
198 143 264 227 300 354 154 189 145 130 231 223 217 265 238 204 192 220 297 303 289 302 300 308 329 338 344 345 350 354 354 356 355 357 0 358 2 6 6 4 3 12 15 20
199 287 335 358 3 4 184 198 177 117 117 212 156 258 226 214 281 348 291 289 294 307 311 314 328 334 335 337 344 350 358 353 355 1 4 3 4 7 6 5 5 12 14 20
151 175 197 207 197 128 207 217 198 154 168 213 226 269 272 261 286 285 288 290 274 274 286 300 311 313 328 335 339 341 345 353 355 355 6 7 3 4 5 7 9 11 15 18
148 231 203 257 273 264 257 237 213 218 227 213 266 249 266 273 276 283 266 266 275 270 264 269 286 302 318 330 338 341 345 350 355 355 357 4 3 8 8 10 14 13 15 16
37 267 122 279 260 259 262 256 232 234 244 245 257 273 273 276 273 252 251 260 267 276 253 250 263 281 303 315 326 336 343 350 351 355 359 356 2 4 12 6 8 17 14 14
160 157 47 265 342 307 285 244 201 191 216 220 231 241 267 273 258 234 239 238 252 272 268 231 243 258 278 295 313 328 331 345 353 354 358 360 356 360 3 10 5 8 14 16
153 126 129 274 353 298 255 215 184 206 228 214 252 253 239 258 272 246 231 236 256 265 269 227 221 241 264 279 299 320 324 341 350 356 353 355 354 353 358 5 5 2 10 13
198 148 299 241 215 303 278 115 153 168 261 239 230 252 256 267 348 279 235 219 240 256 259 239 241 234 239 251 281 306 315 336 348 355 353 351 349 346 349 355 356 356 359 5
202 197 174 92 215 238 248 250 185 136 288 221 189 229 242 113 305 274 241 224 249 265 269 249 238 229 230 228 250 285 313 331 341 345 344 342 344 340 339 343 344 344 354 354
147 200 217 220 258 280 251 216 143 86 262 182 183 218 172 189 232 254 236 258 260 274 276 266 236 223 233 219 232 258 298 319 326 332 336 335 335 335 331 333 339 340 344 349
169 170 195 173 178 274 188 101 196 218 287 219 230 248 228 237 266 271 263 273 284 267 270 268 233 223 215 214 227 242 289 296 304 316 326 328 332 331 324 330 332 338 340 339
251 196 190 187 207 245 204 211 230 195 219 260 230 246 250 261 257 266 273 274 273 272 267 268 238 223 204 211 237 248 295 292 304 315 320 323 327 328 324 325 324 333 337 332
256 199 238 108 226 245 242 256 266 264 257 266 264 261 252 253 261 269 271 271 264 271 268 256 210 195 193 218 233 293 301 303 310 316 321 324 325 327 328 324 322 322 325 326
189 142 238 257 271 276 262 250 259 269 266 259 252 241 244 247 265 271 280 274 269 281 257 210 192 195 225 254 292 306 309 312 314 315 318 320 317 321 318 319 316 316 313 310
185 238 238 255 253 258 276 261 226 239 247 256 259 245 243 234 264 276 275 274 265 172 167 151 194 262 279 291 303 309 311 310 312 310 310 309 312 311 313 315 315 316 312 313